Regional Weather Roundup
Issued by NWS State College, PA

Home | Current Version | Previous Version | Text Only | Print | Product List | Glossary On
Versions: 1 2 3 4 5 6 7 8 9 10 11 12 13 14 15 16 17 18 19 20 21 22 23 24 25 26 27 28 29 30 31 32 33 34 35 36 37 38 39 40 41 42 43 44 45 46 47 48 49 50
000
ASUS41 KCTP 270503
RWRCTP

REGIONAL WEATHER ROUNDUP
NATIONAL WEATHER SERVICE STATE COLLEGE PA
100 AM EDT WED AUG 27 2014

Note: "fair" indicates few or no clouds below 12,000 feet with no
significant weather and/or obstructions to visibility.

* = STATION THAT DOES NOT REPORT PRECIPITATION /E.G. RAIN...SNOW...ETC/
    THUNDER OR FOG.

PAZ002>004-007>009-013>016-020>023-029>032-270600-
WESTERN PENNSYLVANIA

CITY           SKY/WX    TMP DP  RH WIND       PRES   REMARKS
ERIE           MOCLDY    75  67  76 SW9       30.04R
MEADVILLE      PTCLDY    72  66  81 SW5       30.10R
FRANKLIN*      PTCLDY    66  63  88 S7        30.11S
NEW CASTLE     FAIR      68  66  93 CALM      30.10R
BEAVER COUNTY  NOT AVBL
BUTLER*        CLEAR     66  63  88 CALM      30.12R
PITTSBURGH INT PTCLDY    70  63  78 CALM      30.10R
PITTSBURGH     CLEAR     69  61  75 SW3       30.08R
INDIANA*       CLOUDY    64  61  88 CALM      30.13F
LATROBE        CLEAR     63  63 100 CALM      30.09F
WASHINGTON CO* CLEAR     63  61  94 CALM      30.10R
$$

PAZ004>006-010>012-017>019-024>028-033>037-041-042-045-046-049>053-270600-
CENTRAL PENNSYLVANIA

CITY           SKY/WX    TMP DP  RH WIND       PRES   REMARKS
BRADFORD       PTCLDY    68  62  81 S3        30.12R
DUBOIS         CLEAR     67  61  81 W5        30.11R
CLEARFIELD     CLEAR     61  60  97 N3        30.11F
JOHNSTOWN      CLEAR     65  51  60 SW6       30.15S
ALTOONA        CLEAR     62  59  90 CALM      30.12F
STATE COLLEGE  PTCLDY    66  59  79 CALM      30.10S
WILLIAMSPORT   CLEAR     64  61  90 NW5       30.07S
SELINSGROVE    CLEAR     61  59  93 CALM      30.09S
FT INDIANTOWN  CLEAR     62  62 100 CALM      30.09F
CAPITAL CITY   LGT RAIN  65  61  87 CALM      30.09S
HARRISBURG     PTCLDY    69  63  81 CALM      30.08F
YORK           CLEAR     59  58  96 CALM      30.09F
$$

PAZ038>040-043-044-047-048-054-055-060>062-067>071-270600-
EASTERN PENNSYLVANIA

CITY           SKY/WX    TMP DP  RH WIND       PRES   REMARKS
SCRANTON       CLEAR     64  59  83 CALM      30.09F
MOUNT POCONO   CLEAR     60  57  89 W3        30.13F
ALLENTOWN      CLEAR     67  62  84 W3        30.09S
QUAKERTOWN*    CLEAR     66  64  94 CALM      30.11S
READING        CLEAR     69  62  78 CALM      30.08S
LANCASTER      CLEAR     66  61  84 NE3       30.09F
COATESVILLE    CLEAR     64  64 100 CALM      30.12S
POTTSTOWN      CLEAR     67  63  87 CALM      30.11S
BLUE BELL      CLEAR     70  64  83 CALM      30.09S
DOYLESTOWN     CLEAR     69  64  84 S6        30.09S
WILLOW GROVE   NOT AVBL
NORTH PHILA    CLEAR     72  59  63 SW3       30.10F
PHILADELPHIA   CLEAR     71  63  75 SW3       30.09F
$$



USA.gov is the U.S. government's official web portal to all federal, state and local government web resources and services.